Flag for U.S.A. Weather past 2 weeks in Topeka, Kansas, U.S.A.

Now
68 °F

Fog.


Feels Like: 68 °F
Forecast: 69 / 86 °F
Wind: No wind

Location: Philip Billard Municipal Airport

Current Time: Sep 20, 2014 at 12:12:10 PM

Latest Report: Sep 20, 2014 at 7:53 AM


Visibility: 2 mi

Pressure: 29.96 "Hg

Humidity: 93%

Dew point: 66 °F

Location of TopekaLocation

Historic Weather in Topeka — Graph

°F

Topeka temperature yesterday

Maximum temperature yesterday: 82 °F (at 4:53 PM)
Minimum temperature yesterday: 62 °F (at 12:53 AM)
Average temperature yesterday: 71 °F

Past Weeks' High & Low Weather Summary

 TemperatureHumidityPressure
High94 °F (Sep 9, 3:53 PM)100% (Sep 7, 3:53 AM)30.44 "Hg (Sep 7, 3:53 AM)
Low38 °F (Sep 13, 6:04 AM)41% (Sep 7, 4:53 PM)29.49 "Hg (Sep 9, 11:53 PM)
Average66 °F79%30.06 "Hg
* Reported Sep 5 7:53 AM — Sep 20 7:53 AM, Topeka, Weather by CustomWeather, © 2014

Note: Actual official high and low records may vary slightly from our data, if they occured in-between our weather recording intervals... More about our weather records

Advertising

Topeka weather history for previous 24 hours

 ConditionsComfort  
Time TempWeatherWind HumidityBarometerVisibility
7:53 AM
Sep 20
68 °FFog.No wind93%29.96 "Hg2 mi
6:53 AM69 °FFog.No wind96%29.93 "Hg5 mi
5:53 AM70 °FFog.6 mph93%29.90 "Hg6 mi
4:53 AM70 °FFog.7 mph93%29.90 "Hg5 mi
3:53 AM70 °FFog.9 mph97%29.90 "Hg5 mi
2:53 AM70 °FFog.10 mph93%29.90 "Hg5 mi
1:53 AM70 °FFog.12 mph93%29.90 "Hg6 mi
12:53 AM71 °FFog.9 mph90%29.91 "Hg6 mi
11:53 PM
Sep 19
71 °FFog.8 mph93%29.92 "Hg6 mi
10:53 PM72 °FClear.10 mph91%29.92 "Hg7 mi
9:53 PM73 °FClear.10 mph88%29.91 "Hg8 mi
8:53 PM74 °FClear.10 mph85%29.90 "Hg10 mi
7:53 PM75 °FSunny.10 mph85%29.89 "Hg10 mi
6:53 PM79 °FSunny.10 mph72%29.89 "Hg10 mi
5:53 PM82 °FSunny.9 mph65%29.90 "Hg10 mi
4:53 PM82 °FSunny.12 mph67%29.90 "Hg10 mi
3:53 PM81 °FSunny.13 mph69%29.92 "Hg10 mi
2:53 PM80 °FPassing clouds.14 mph71%29.93 "Hg10 mi
1:53 PM76 °FPartly sunny.10 mph80%29.96 "Hg10 mi
12:53 PM73 °FOvercast.9 mph81%29.98 "Hg9 mi
Weather by CustomWeather, © 2014

See weather overviewHow to use our weather pages